Regional Weather Roundup
Issued by NWS Green Bay, WI

Home | Current Version | Previous Version | Graphics & Text | Print | Product List | Glossary Off
Versions: 1 2 3 4 5 6 7 8 9 10 11 12 13 14 15 16 17 18 19 20 21 22 23 24 25 26 27 28 29 30 31 32 33 34 35 36 37 38 39 40 41 42 43 44 45 46 47 48 49 50

000
ASUS43 KGRB 201000
RWRGRB

NORTH-CENTRAL AND NORTHEAST WISCONSIN REGIONAL WEATHER ROUNDUP
NATIONAL WEATHER SERVICE GREEN BAY WI
500 AM CDT SUN MAY 20 2018

WIZ005-009-010>012-018-019-201100-
NORTH CENTRAL WISCONSIN

CITY           SKY/WX    TMP DP  RH WIND       PRES   REMARKS
IRONWOOD       FAIR      29  28  96 CALM      30.24S
MANITOWISH WTR NOT AVBL
ARBOR VITAE    NOT AVBL
EAGLE RIVER    NOT AVBL
LAND O LAKES   NOT AVBL
RHINELANDER    FAIR      40  34  79 NE6       30.20R
PHILLIPS       NOT AVBL
ANTIGO         NOT AVBL
TOMAHAWK       NOT AVBL
MERRILL        NOT AVBL
$$

WIZ013-073-201100-
NORTHEAST WISCONSIN

CITY           SKY/WX    TMP DP  RH WIND       PRES   REMARKS
IRON MOUNTAIN  FAIR      39  33  79 N10       30.17S
MARINETTE      NOT AVBL
$$

WIZ017-030-035>037-045-201100-
CENTRAL WISCONSIN

CITY           SKY/WX    TMP DP  RH WIND       PRES   REMARKS
MEDFORD        NOT AVBL
WAUSAU         CLOUDY    43  36  76 NE6       30.17R
MOSINEE        NOT AVBL
MARSHFIELD     CLOUDY    45  38  76 NE12      30.15S
WISC RAPIDS    CLOUDY    48  40  73 NE7       30.16R
STEVENS POINT  NOT AVBL
WAUPACA        NOT AVBL
SHAWANO        NOT AVBL
CLINTONVILLE   NOT AVBL
WAUTOMA        LGT RAIN  46  43  89 NE9       30.15S
$$

WIZ038-039-048-051-201100-
FOX VALLEY

CITY           SKY/WX    TMP DP  RH WIND       PRES   REMARKS
NWS GREEN BAY  CLOUDY    46  39  76 N13       30.17R
APPLETON       NOT AVBL
OSHKOSH        LGT RAIN  47  44  90 N9        30.15R
FOND DU LAC    LGT RAIN  47  43  86 NE9       30.15R
$$

WIZ022-050-052-201100-
EAST CENTRAL WISCONSIN

CITY           SKY/WX    TMP DP  RH WIND       PRES   REMARKS
EPHRAIM        NOT AVBL
WASHINGTON ISL NOT AVBL
STURGEON BAY   CLOUDY    41  37  86 N16G24    30.17S
MANITOWOC      LGT RAIN  44  40  85 N7        30.16S
SHEBOYGAN      LGT RAIN  45  42  89 N10       30.15R
$$

LMZ563-521-522-541>543-201100-
LAKESHORE

STATION/POSITION TIME  TEMP    WIND        PRES    VSBY  WAVE
                       AIR SEA DIR/SP/G                  HT/PER
                 (UTC) (F)     (DEG/KT/KT) (MB)    (MI)  (FT/S)
SHEBOYGAN LKSHOR 0900   43      30/ 17/ 19 1021.0R
KEWAUNEE LKSHORE 0930   43     360/  8/ 13 1020.6R
NORTHPORT PIER   0940   42                 1021.3F
SISTER BAY LKSHO 0927   42      10/ 15/ 17   N/A
MENOMINEE LKSHOR 0930   43     350/ 16/ 18 1021.6R
$$




USA.gov is the U.S. government's official web portal to all federal, state and local government web resources and services.